NO4D Weather Reports


Display with metric or nautical units.
time (UTC)temp
F
wind
direction
speed
MPH
gust
MPH
rain 1hr
in
rain 24hr
in
rain mn
in
humidity
%
barometer
mb
20260505183512 78 196 2.0 4.0 0.00 0.00 0.00 41 1015.7
20260505183009 78 179 2.0 3.0 0.00 0.00 0.00 41 1015.9
20260505182506 79 222 5.0 7.0 0.00 0.00 0.00 39 1016.1
20260505182002 78 245 2.0 3.0 0.00 0.00 0.00 40 1016.2
20260505181459 78 236 7.0 10.0 0.00 0.00 0.00 39 1016.1
20260505180956 78 232 5.0 7.0 0.00 0.00 0.00 40 1016.4
20260505180452 78 205 4.0 5.0 0.00 0.00 0.00 42 1016.4
20260505175949 78 239 6.0 8.0 0.00 0.00 0.00 40 1016.4
20260505175445 77 199 5.0 7.0 0.00 0.00 0.00 42 1016.4
20260505174942 77 195 5.0 5.0 0.00 0.00 0.00 41 1016.8
20260505174439 77 239 8.0 12.0 0.00 0.00 0.00 41 1016.5
20260505173935 78 199 9.0 11.0 0.00 0.00 0.00 40 1016.9
20260505173432 77 190 2.0 3.0 0.00 0.00 0.00 41 1016.9
20260505172929 78 191 9.0 15.0 0.00 0.00 0.00 40 1016.7
20260505172427 77 214 3.0 4.0 0.00 0.00 0.00 40 1016.8
20260505171926 77 214 4.0 7.0 0.00 0.00 0.00 42 1016.7
20260505171424 76 196 2.0 3.0 0.00 0.00 0.00 46 1016.7
20260505170920 77 207 4.0 5.0 0.00 0.00 0.00 45 1016.8
20260505170417 77 161 3.0 4.0 0.00 0.00 0.00 44 1016.8
20260505165912 76 194 8.0 11.0 0.00 0.00 0.00 43 1016.6
20260505165408 76 193 1.0 1.0 0.00 0.00 0.00 46 1016.5
20260505164903 75 245 7.0 11.0 0.00 0.00 0.00 45 1017.0
20260505164400 76 158 1.0 1.0 0.00 0.00 0.00 46 1016.8
20260505163859 76 208 5.0 7.0 0.00 0.00 0.00 45 1016.9
20260505163358 76 226 4.0 5.0 0.00 0.00 0.00 46 1016.6
20260505162855 76 207 5.0 5.0 0.00 0.00 0.00 45 1016.5
20260505162351 75 199 5.0 7.0 0.00 0.00 0.00 48 1016.7
20260505161848 75 225 4.0 7.0 0.00 0.00 0.00 49 1017.0
20260505161345 75 241 4.0 5.0 0.00 0.00 0.00 50 1017.1
20260505160843 76 244 5.0 7.0 0.00 0.00 0.00 50 1017.2
20260505160341 75 194 3.0 4.0 0.00 0.00 0.00 51 1016.9
20260505153320 74 206 3.0 4.0 0.00 0.00 0.00 53 1017.5
20260505152817 73 181 3.0 4.0 0.00 0.00 0.00 52 1017.6
20260505152314 73 232 4.0 5.0 0.00 0.00 0.00 54 1017.5
20260505151814 72 218 5.0 5.0 0.00 0.00 0.00 53 1017.5
20260505151311 72 217 4.0 5.0 0.00 0.00 0.00 55 1017.6
20260505150808 72 203 2.0 3.0 0.00 0.00 0.00 56 1017.7
20260505150305 72 215 2.0 3.0 0.00 0.00 0.00 57 1017.8
20260505140229 68 161 2.0 3.0 0.00 0.00 0.00 64 1017.0
20260505130153 64 197 3.0 4.0 0.00 0.00 0.00 73 1017.0
20260505124643 63 328 3.0 3.0 0.00 0.00 0.00 75 1017.1
20260505124139 62 223 1.0 1.0 0.00 0.00 0.00 76 1017.0
20260505123635 63 195 1.0 1.0 0.00 0.00 0.00 76 1017.1
20260505123132 62 201 0.0 0.0 0.00 0.00 0.00 76 1017.0
20260505122629 62 195 0.0 1.0 0.00 0.00 0.00 77 1016.9
20260505122126 61 249 1.0 3.0 0.00 0.00 0.00 77 1016.9
20260505121623 60 192 0.0 1.0 0.00 0.00 0.00 79 1016.8
20260505121119 60 191 1.0 1.0 0.00 0.00 0.00 80 1016.8
20260505120615 59 142 1.0 1.0 0.00 0.00 0.00 81 1016.7
20260505120111 59 88 1.0 1.0 0.00 0.00 0.00 81 1016.7
20260505115606 58 198 0.0 1.0 0.00 0.00 0.00 82 1016.8
20260505115104 58 218 1.0 1.0 0.00 0.00 0.00 83 1016.4
20260505114601 58 256 3.0 5.0 0.00 0.00 0.00 83 1016.4
20260505114057 57 251 6.0 8.0 0.00 0.00 0.00 85 1016.6
20260505113553 56 191 1.0 1.0 0.00 0.00 0.00 85 1016.6
20260505113050 56 194 0.0 1.0 0.00 0.00 0.00 86 1016.6
20260505112547 56 196 0.0 1.0 0.00 0.00 0.00 86 1016.5
20260505112045 56 223 1.0 1.0 0.00 0.00 0.00 85 1016.7
20260505111544 56 203 0.0 1.0 0.00 0.00 0.00 85 1016.7
20260505111040 56 207 1.0 1.0 0.00 0.00 0.00 85 1016.6
20260505110537 56 186 0.0 0.0 0.00 0.00 0.00 85 1016.5
20260505102009 55 207 2.0 3.0 0.00 0.00 0.00 84 1016.2
20260505101508 55 192 0.0 0.0 0.00 0.00 0.00 84 1016.2
20260505101004 55 232 3.0 3.0 0.00 0.00 0.00 83 1016.1
20260505100501 56 268 3.0 4.0 0.00 0.00 0.00 82 1016.2
20260505095957 56 199 2.0 3.0 0.00 0.00 0.00 82 1016.3
20260505095454 56 221 3.0 4.0 0.00 0.00 0.00 82 1016.1
20260505094950 56 204 3.0 4.0 0.00 0.00 0.00 82 1016.2
20260505094447 55 198 1.0 1.0 0.00 0.00 0.00 82 1016.2
20260505093943 55 217 2.0 3.0 0.00 0.00 0.00 83 1016.2
20260505093440 55 231 3.0 4.0 0.00 0.00 0.00 83 1016.2
20260505092937 55 195 2.0 3.0 0.00 0.00 0.00 83 1016.1
20260505092434 55 202 0.0 0.0 0.00 0.00 0.00 82 1016.0
20260505091932 55 219 2.0 3.0 0.00 0.00 0.00 82 1016.2
20260505091429 54 187 0.0 0.0 0.00 0.00 0.00 82 1015.8
20260505090927 53 174 0.0 0.0 0.00 0.00 0.00 83 1015.9
20260505090425 54 177 0.0 0.0 0.00 0.00 0.00 82 1015.9
20260505085922 54 165 0.0 0.0 0.00 0.00 0.00 82 1015.9
20260505085420 54 183 0.0 1.0 0.00 0.00 0.00 82 1015.9
20260505084918 54 180 0.0 0.0 0.00 0.00 0.00 81 1015.8
20260505084416 55 192 0.0 0.0 0.00 0.00 0.00 80 1015.9
20260505083914 55 192 0.0 0.0 0.00 0.00 0.00 79 1015.8
20260505083411 55 179 0.0 0.0 0.00 0.00 0.00 79 1015.7
20260505082907 55 229 1.0 1.0 0.00 0.00 0.00 78 1015.4
20260505082403 55 185 0.0 0.0 0.00 0.00 0.00 79 1015.7
20260505081900 55 183 0.0 0.0 0.00 0.00 0.00 78 1015.7
20260505081357 55 187 0.0 0.0 0.00 0.00 0.00 78 1015.5
20260505080853 55 189 0.0 0.0 0.00 0.00 0.00 77 1015.7
20260505080349 55 202 2.0 3.0 0.00 0.00 0.00 77 1015.7
20260505075845 55 202 1.0 1.0 0.00 0.00 0.00 78 1015.5
20260505075342 55 185 0.0 0.0 0.00 0.00 0.00 77 1015.4
20260505074839 55 192 1.0 1.0 0.00 0.00 0.00 77 1015.4
20260505074336 55 187 0.0 0.0 0.00 0.00 0.00 76 1015.5
20260505073834 55 194 0.0 0.0 0.00 0.00 0.00 76 1015.3
20260505073332 54 175 0.0 0.0 0.00 0.00 0.00 77 1015.5
20260505072828 54 188 0.0 0.0 0.00 0.00 0.00 77 1015.7
20260505072324 54 193 0.0 1.0 0.00 0.00 0.00 77 1015.8
20260505071820 53 179 1.0 1.0 0.00 0.00 0.00 79 1015.4
20260505071317 53 176 0.0 1.0 0.00 0.00 0.00 78 1015.4
20260505070815 54 174 0.0 0.0 0.00 0.00 0.00 77 1015.5
20260505070311 54 171 0.0 0.0 0.00 0.00 0.00 77 1015.5
20260505065807 54 171 0.0 0.0 0.00 0.00 0.00 76 1015.3
20260505065304 55 170 0.0 0.0 0.00 0.00 0.00 75 1015.4
20260505064801 55 164 0.0 0.0 0.00 0.00 0.00 74 1015.4
20260505064258 56 195 0.0 0.0 0.00 0.00 0.00 73 1015.3
20260505063756 56 179 0.0 1.0 0.00 0.00 0.00 73 1015.3
20260505063252 56 155 2.0 3.0 0.00 0.00 0.00 72 1015.3
20260505062749 57 187 0.0 0.0 0.00 0.00 0.00 71 1015.3
20260505062246 57 186 0.0 1.0 0.00 0.00 0.00 71 1015.3
20260505061743 56 154 3.0 3.0 0.00 0.00 0.00 72 1015.3
20260505061241 57 163 1.0 1.0 0.00 0.00 0.00 72 1015.3
20260505060738 57 167 0.0 0.0 0.00 0.00 0.00 71 1015.2
20260505060235 58 163 2.0 3.0 0.00 0.00 0.00 70 1015.3
20260505055730 57 176 0.0 0.0 0.00 0.00 0.00 70 1015.2
20260505055227 57 190 0.0 0.0 0.00 0.00 0.00 69 1015.1
20260505054724 58 191 0.0 0.0 0.00 0.00 0.00 69 1015.3
20260505054222 57 191 0.0 0.0 0.00 0.00 0.00 70 1015.3
20260505053720 57 182 0.0 0.0 0.00 0.00 0.00 70 1015.4
20260505053216 57 181 0.0 0.0 0.00 0.00 0.00 70 1015.5
20260505052713 57 181 0.0 0.0 0.00 0.00 0.00 70 1015.4
20260505052210 57 180 0.0 0.0 0.00 0.00 0.00 70 1015.4
20260505051707 57 180 0.0 0.0 0.00 0.00 0.00 70 1015.5
20260505051205 58 177 0.0 0.0 0.00 0.00 0.00 69 1015.7
20260505050703 58 177 0.0 0.0 0.00 0.00 0.00 68 1015.7
20260505050201 58 177 0.0 0.0 0.00 0.00 0.00 68 1015.4
20260505041637 59 187 0.0 0.0 0.00 0.00 0.00 66 1015.5
20260505041134 60 187 0.0 0.0 0.00 0.00 0.00 65 1015.3
20260505040631 60 187 0.0 0.0 0.00 0.00 0.00 64 1015.8
20260505040128 61 189 0.0 0.0 0.00 0.00 0.00 63 1015.8
20260505035624 62 192 0.0 0.0 0.00 0.00 0.00 62 1015.7
20260505035120 62 194 2.0 3.0 0.00 0.00 0.00 61 1015.8
20260505034617 62 189 1.0 1.0 0.00 0.00 0.00 61 1015.8
20260505034114 63 192 3.0 3.0 0.00 0.00 0.00 59 1015.7
20260505033611 63 211 2.0 3.0 0.00 0.00 0.00 58 1015.8
20260505033110 64 186 0.0 0.0 0.00 0.00 0.00 58 1015.9
20260505032607 64 211 3.0 3.0 0.00 0.00 0.00 58 1015.8
20260505032103 64 190 1.0 1.0 0.00 0.00 0.00 57 1015.7
20260505031601 64 256 1.0 1.0 0.00 0.00 0.00 57 1015.8
20260505031056 64 177 0.0 1.0 0.00 0.00 0.00 57 1015.8
20260505030554 64 172 1.0 3.0 0.00 0.00 0.00 56 1015.9
20260505030049 65 180 3.0 4.0 0.00 0.00 0.00 55 1016.0
20260505025545 65 173 0.0 1.0 0.00 0.00 0.00 55 1016.0
20260505025045 65 201 1.0 1.0 0.00 0.00 0.00 55 1015.8
20260505024541 65 189 0.0 0.0 0.00 0.00 0.00 54 1015.8
20260505024038 66 203 3.0 3.0 0.00 0.00 0.00 54 1015.8
20260505023535 66 184 2.0 3.0 0.00 0.00 0.00 54 1015.8
20260505023033 65 190 0.0 1.0 0.00 0.00 0.00 54 1015.7
20260505022530 66 187 0.0 0.0 0.00 0.00 0.00 54 1015.4
20260505022027 65 167 0.0 1.0 0.00 0.00 0.00 54 1015.5
20260505021524 65 191 2.0 3.0 0.00 0.00 0.00 54 1015.5
20260505021021 65 187 0.0 0.0 0.00 0.00 0.00 54 1015.5
20260505020520 65 201 1.0 3.0 0.00 0.00 0.00 54 1015.3
20260505020018 65 187 1.0 1.0 0.00 0.00 0.00 52 1015.1
20260505015515 65 181 0.0 0.0 0.00 0.00 0.00 52 1015.4
20260505015012 66 191 0.0 0.0 0.00 0.00 0.00 52 1015.3
20260505014509 66 185 0.0 0.0 0.00 0.00 0.00 51 1015.2
20260505014006 66 185 0.0 1.0 0.00 0.00 0.00 51 1015.3
20260505013503 66 188 0.0 0.0 0.00 0.00 0.00 51 1015.1
20260505013000 64 188 0.0 1.0 0.00 0.00 0.00 52 1015.2
20260505012458 64 169 0.0 0.0 0.00 0.00 0.00 54 1015.0
20260505011955 64 169 0.0 0.0 0.00 0.00 0.00 53 1014.8
20260505011450 64 169 0.0 0.0 0.00 0.00 0.00 53 1015.0
20260505010947 64 169 0.0 0.0 0.00 0.00 0.00 51 1015.0
20260505010443 64 169 0.0 0.0 0.00 0.00 0.00 51 1015.0
20260505005939 65 169 0.0 0.0 0.00 0.00 0.00 50 1014.8
20260505005436 66 169 0.0 0.0 0.00 0.00 0.00 49 1014.9
20260505004934 66 179 0.0 0.0 0.00 0.00 0.00 49 1014.7
20260505004430 67 183 0.0 0.0 0.00 0.00 0.00 49 1014.9
20260505003927 67 175 0.0 0.0 0.00 0.00 0.00 49 1015.1
20260505003425 67 183 0.0 0.0 0.00 0.00 0.00 48 1014.8
20260505002921 68 171 0.0 0.0 0.00 0.00 0.00 48 1014.6
20260505002417 69 171 0.0 0.0 0.00 0.00 0.00 47 1014.7
20260505001916 70 185 0.0 0.0 0.00 0.00 0.00 46 1014.5
20260505001413 70 214 3.0 4.0 0.00 0.00 0.00 45 1014.8
20260505000910 71 171 0.0 1.0 0.00 0.00 0.00 45 1014.7
20260505000408 71 183 0.0 1.0 0.00 0.00 0.00 44 1014.7
20260504235904 72 191 1.0 1.0 0.00 0.00 0.00 44 1014.5
20260504235401 72 213 3.0 4.0 0.00 0.00 0.00 42 1014.4
20260504234857 73 224 6.0 8.0 0.00 0.00 0.00 42 1014.5
20260504234355 73 209 5.0 7.0 0.00 0.00 0.00 41 1014.4
20260504233852 73 186 2.0 3.0 0.00 0.00 0.00 40 1014.6
20260504233347 73 202 2.0 3.0 0.00 0.00 0.00 40 1014.2
20260504232844 74 206 4.0 4.0 0.00 0.00 0.00 40 1014.1
20260504232341 74 173 2.0 3.0 0.00 0.00 0.00 39 1014.0
20260504231838 75 194 1.0 1.0 0.00 0.00 0.00 40 1014.2
20260504231335 75 205 8.0 11.0 0.00 0.00 0.00 39 1013.9
20260504230831 75 183 2.0 3.0 0.00 0.00 0.00 38 1014.0
20260504230329 76 187 2.0 3.0 0.00 0.00 0.00 38 1013.9
20260504225827 75 146 2.0 3.0 0.00 0.00 0.00 37 1014.0
20260504225323 76 208 2.0 4.0 0.00 0.00 0.00 37 1014.1
20260504224821 77 157 2.0 3.0 0.00 0.00 0.00 37 1014.1
20260504224318 77 180 2.0 3.0 0.00 0.00 0.00 35 1014.0
20260504223814 77 227 1.0 3.0 0.00 0.00 0.00 35 1014.1
20260504223310 77 203 5.0 7.0 0.00 0.00 0.00 34 1014.2
20260504222807 77 217 2.0 5.0 0.00 0.00 0.00 35 1014.3
20260504222305 78 204 1.0 1.0 0.00 0.00 0.00 36 1014.2
20260504221802 78 164 2.0 3.0 0.00 0.00 0.00 36 1014.2
20260504221258 78 209 2.0 3.0 0.00 0.00 0.00 36 1014.0
20260504220755 77 209 3.0 4.0 0.00 0.00 0.00 35 1014.3
20260504220252 77 177 0.0 1.0 0.00 0.00 0.00 35 1014.2
20260504215749 77 203 2.0 4.0 0.00 0.00 0.00 36 1014.1
20260504215246 77 217 4.0 5.0 0.00 0.00 0.00 35 1014.2
20260504214741 78 183 2.0 3.0 0.00 0.00 0.00 38 1014.1
20260504214238 78 191 4.0 5.0 0.00 0.00 0.00 37 1014.3
20260504213735 78 225 4.0 8.0 0.00 0.00 0.00 37 1014.2
20260504213231 78 200 7.0 11.0 0.00 0.00 0.00 36 1014.1
20260504212729 78 206 3.0 4.0 0.00 0.00 0.00 36 1014.0
20260504212225 78 216 5.0 8.0 0.00 0.00 0.00 35 1014.3
20260504211723 77 192 1.0 3.0 0.00 0.00 0.00 36 1014.1
20260504211219 77 174 1.0 1.0 0.00 0.00 0.00 36 1014.3
20260504210716 78 153 4.0 5.0 0.00 0.00 0.00 35 1014.2
20260504210213 78 187 0.0 1.0 0.00 0.00 0.00 37 1014.4
20260504205710 77 185 2.0 3.0 0.00 0.00 0.00 37 1014.4
20260504205208 77 118 5.0 7.0 0.00 0.00 0.00 36 1014.3
20260504204706 78 157 5.0 7.0 0.00 0.00 0.00 36 1014.6
20260504204204 77 207 2.0 3.0 0.00 0.00 0.00 37 1014.5
20260504203703 78 141 3.0 4.0 0.00 0.00 0.00 33 1014.5
20260504203200 78 196 4.0 5.0 0.00 0.00 0.00 33 1014.4
20260504202700 77 138 4.0 5.0 0.00 0.00 0.00 36 1014.4
20260504202158 79 166 2.0 3.0 0.00 0.00 0.00 37 1014.4
20260504201654 78 260 5.0 5.0 0.00 0.00 0.00 35 1014.6
20260504201152 78 113 2.0 3.0 0.00 0.00 0.00 36 1014.7
20260504200649 78 104 5.0 7.0 0.00 0.00 0.00 34 1014.6
20260504200146 78 209 4.0 5.0 0.00 0.00 0.00 36 1014.7
20260504195641 78 113 5.0 7.0 0.00 0.00 0.00 36 1014.8
20260504195138 78 250 5.0 7.0 0.00 0.00 0.00 35 1014.7
20260504194635 77 94 7.0 10.0 0.00 0.00 0.00 34 1014.8
20260504194131 77 212 3.0 4.0 0.00 0.00 0.00 35 1015.0
20260504193627 78 100 10.0 12.0 0.00 0.00 0.00 34 1015.1
20260504193126 78 116 6.0 11.0 0.00 0.00 0.00 33 1015.1
20260504192623 77 201 3.0 3.0 0.00 0.00 0.00 35 1015.1
20260504192121 77 131 6.0 7.0 0.00 0.00 0.00 33 1015.2
20260504191619 78 138 2.0 3.0 0.00 0.00 0.00 33 1015.1
20260504191115 77 214 2.0 3.0 0.00 0.00 0.00 33 1015.4
20260504190611 77 201 7.0 10.0 0.00 0.00 0.00 31 1015.7
20260504190108 78 113 7.0 8.0 0.00 0.00 0.00 34 1015.5
20260504185605 78 228 5.0 5.0 0.00 0.00 0.00 32 1015.5
20260504185101 78 194 3.0 4.0 0.00 0.00 0.00 32 1015.7
20260504184557 77 226 5.0 7.0 0.00 0.00 0.00 34 1015.7
20260504184052 77 229 6.0 8.0 0.00 0.00 0.00 34 1016.1